COLIBRI-S (RS67S)

Last updated on Tue Aug 25 2026 00:03:14 GMT+0000 (Coordinated Universal Time)

1 61746U 24199M 26236.59870054 .00022366 00000+0 39364-3 0 9992 2 61746 97.2873 111.1708 0009151 43.7296 316.4679 15.50425794148009
UTC large
Height (km)
Speed (km/s)
/
Latitude / Longitude
Inclination (degrees)
Orbital Period (minutes)
Azimuth
Elevation
Range (km)
Doppler Factor

Next 0 passes for location: London (51.5072 / 0.1276)

No passes found over London.
COLIBRI-S (RS67S)